Other Public Products
Issued by NWS Grand Forks, ND

Home | Current Version | Previous Version | Graphics & Text | Print | Product List | Glossary On
Versions: 1 2 3 4 5 6 7 8 9 10 11 12 13 14 15 16 17 18 19 20 21 22 23 24 25 26 27 28 29 30 31 32 33 34 35 36 37 38 39 40 41 42 43 44 45 46 47 48 49 50
000
FPUS83 KFGF 281831
OPUFGF
PRAIRIE TO PINES WEATHER ROUNDUP
NATIONAL WEATHER SERVICE EASTERN NORTH DAKOTA/GRAND FORKS ND
1200 PM CST WED JAN 28 2015

 **SATELLITE DATA USED TO AUGMENT SKY COVER AT AUTOMATED STATIONS**
 *****  WEATHER ACROSS EASTERN NORTH DAKOTA  *****

CITY           SKY/WX    TMP DP  RH WIND       PRES   REMARKS
GRAND FORKS    CLOUDY    34  32  92 S7        29.78S FOG
6HR MIN TEMP:  33; 6HR MAX TEMP:  34;

GRAND FORKS AF FOG       32  32 100 SW5       29.77F VSB 1/2
GRAND CITY NWS   N/A     32 N/A N/A SW7         N/A
BUXTON           N/A     33  33  99 S8          N/A
DEVILS LAKE    CLOUDY    32  30  93 N12       29.77S WCI  23
6HR MIN TEMP:  30; 6HR MAX TEMP:  32;

FARGO          CLOUDY    35  31  85 S15       29.77F FOG
6HR MIN TEMP:  34; 6HR MAX TEMP:  36;

WAHPETON ARPT  CLOUDY    32  30  93 S14G20    29.78F WCI  22
$$

 *****  WEATHER ACROSS CENTRAL AND WESTERN NORTH DAKOTA  *****

CITY           SKY/WX    TMP DP  RH WIND       PRES   REMARKS
JAMESTOWN      FOG       32  31  96 NW5       29.73S VSB 1
6HR MIN TEMP:  30; 6HR MAX TEMP:  32;

BISMARCK       CLOUDY    35  32  88 NW7       29.80R
6HR MIN TEMP:  25; 6HR MAX TEMP:  35;

MINOT          FOG       29  27  92 N16       29.85R VSB 1/2 WCI  17
6HR MIN TEMP:  27; 6HR MAX TEMP:  31;

MINOT AFB      FRZ DRZL  28  28 100 N14       29.87R FOG     WCI  17
6HR MIN TEMP:  27; 6HR MAX TEMP:  30; 6HR PCP: TRACE;

GARRISON         N/A     30  28  92 N14       29.82R WCI  19
6HR MIN TEMP:  28; 6HR MAX TEMP:  31;

WILLISTON      CLOUDY    31  29  92 NW16      29.97R FOG     WCI  20
6HR MIN TEMP:  28; 6HR MAX TEMP:  36;

DICKINSON      CLOUDY    44  32  62 NW25G31   29.83R
6HR MIN TEMP:  33; 6HR MAX TEMP:  44;

HETTINGER      CLOUDY    46  30  53 NW24G35   29.83S
6HR MIN TEMP:  35; 6HR MAX TEMP:  48;

$$

 *****  OTHER OBSERVATIONS NORTHEAST NORTH DAKOTA  *****

CITY           SKY/WX    TMP DP  RH WIND       PRES   REMARKS
WALHALLA       FOG       32  32 100 N10       29.80F VSB 1/2 WCI  24
LANGDON        FOG       32  32 100 N13       29.77S VSB 1/4 WCI  22
CAVALIER       FOG       32  32 100 NE3       29.79F VSB<1/4
GRAFTON        NOT AVBL
CANDO          CLOUDY    32  32 100 N15       29.80S FOG     WCI  22
FORT TOTTEN    NOT AVBL
ROLLA          MIX PCPN  27  27 100 S12       29.82S VSB 1/4 WCI  16
RUGBY          CLOUDY    30  30 100 N13       29.81F FOG     WCI  20
 ***** THE ABOVE OBSERVATIONS ARE NON NWS ARE NOT QUALITY
        CONTROLLED AND MAY MIS-REPORT RAIN FOR SNOW...
$$

 *****  OTHER OBSERVATIONS SOUTHEAST NORTH DAKOTA *****

CITY           SKY/WX    TMP DP  RH WIND       PRES   REMARKS
COOPERSTOWN    NOT AVBL
VALLEY CITY    CLOUDY    32  32 100 SW3       29.74S FOG
OAKES            N/A     37  36  93 SW3       29.73F
GWINNER        CLOUDY    36  36 100 SE9       29.74F
SHEYENNE NWR     N/A     34  31  90 S9        29.95S
BUFFALO        NOT AVBL
WYNDMERE         N/A     34  34 100 S9          N/A
 ***** THE ABOVE OBSERVATIONS ARE NON NWS ARE NOT QUALITY
       CONTROLLED AND MAY MIS-REPORT RAIN FOR SNOW...
$$

  *****  WEATHER ACROSS NORTHERN MINNESOTA  *****

CITY           SKY/WX    TMP DP  RH WIND       PRES   REMARKS
FLAG ISLAND    FOG       28  28 100 SE3       29.82F VSB 1
WARROAD        FOG       32  28  86 SE3       29.81S VSB 1
ROSEAU         CLOUDY    34  28  80 SE3       29.81S HAZE
HALLOCK        FOG       34  32  93 S6        29.79F VSB 1/4
THF RVR FALLS  CLOUDY    34  30  86 S7        29.78F
6HR MIN TEMP:  32; 6HR MAX TEMP:  34;

HALSTAD          N/A     35  30  82 S17         N/A  WCI  25
FOSSTON        CLOUDY    32  28  86 S9        29.76F FOG     WCI  24
BAUDETTE       CLOUDY    30  29  96 VRB7      29.80F FOG     WCI  23
6HR MIN TEMP:  28; 6HR MAX TEMP:  30;

WASKISH        CLOUDY    30  30 100 SE6       29.80F FOG     WCI  24
CROOKSTON      CLOUDY    34  32  93 SW12      29.79F FOG
$$
  *****  WEATHER ACROSS CENTRAL AND WEST MINNESOTA  *****

CITY           SKY/WX    TMP DP  RH WIND       PRES   REMARKS
BEMIDJI        CLOUDY    31  29  94 S12       29.78F FOG     WCI  22
PARK RAPIDS    CLOUDY    31  30  96 S14       29.79F FOG     WCI  21
6HR MIN TEMP:  31; 6HR MAX TEMP:  31;

WADENA         CLOUDY    30  28  93 S13         N/A  FOG     WCI  20
DETROIT LAKES  CLOUDY    34  32  93 S13       29.78F FOG     WCI  25
MOORHEAD       CLOUDY    36  36 100 S10       29.78F FOG
FERGUS FALLS   CLOUDY    34  30  86 S16       29.81F FOG     WCI  23
ELBOW LAKE     CLOUDY    32  31  96 SE16      29.78F FOG     WCI  21
MORRIS MN      CLOUDY    34  30  86 SE16      29.77F FOG     WCI  23
STAPLES        CLOUDY    28  28 100 SE6       29.81F FOG     WCI  22
WHEATON        CLOUDY    32  30  93 SE14      29.79S FOG     WCI  22
$$
  *****  WEATHER ELSEWHERE ACROSS MINNESOTA  *****

CITY           SKY/WX    TMP DP  RH WIND       PRES   REMARKS
DULUTH         CLOUDY    25  22  88 SE10      29.89F FOG     WCI  15
6HR MIN TEMP:  23; 6HR MAX TEMP:  25;

INTRNTL FALLS  CLOUDY    28  24  85 SE8       29.83F WCI  20
6HR MIN TEMP:  26; 6HR MAX TEMP:  28;

ELY            CLOUDY    28  25  86 S7        29.86F WCI  21
CLOQUET        CLOUDY    27  21  80 SE7       29.88F FOG     WCI  19
BRAINERD       CLOUDY    29  27  92 S12       29.85F FOG     WCI  19
6HR MIN TEMP:  29; 6HR MAX TEMP:  29;

HIBBING        CLOUDY    26  21  81 S10       29.86F WCI  16
6HR MIN TEMP:  24; 6HR MAX TEMP:  26;

ALEXANDRIA     CLOUDY    31  30  96 S16       29.80F FOG     WCI  20
6HR MIN TEMP:  31; 6HR MAX TEMP:  32;

SAINT CLOUD    CLOUDY    30  27  88 SE21      29.86F FOG     WCI  17
6HR MIN TEMP:  29; 6HR MAX TEMP:  30;

MINNEAPOLIS    CLOUDY    28  24  85 SE15      29.93F FOG     WCI  16
6HR MIN TEMP:  28; 6HR MAX TEMP:  29;

$$

  *****  WEATHER ACROSS SOUTH DAKOTA  *****

CITY           SKY/WX    TMP DP  RH WIND       PRES   REMARKS
SIOUX FALLS    PTSUNNY   40  34  79 S13       29.73F
6HR MIN TEMP:  33; 6HR MAX TEMP:  40;

BROOKINGS      NOT AVBL
WATERTOWN      CLOUDY    34  31  88 SE9       29.71S
6HR MIN TEMP:  32; 6HR MAX TEMP:  35;

HURON          PTSUNNY   39  33  79 W5        29.71F
6HR MIN TEMP:  32; 6HR MAX TEMP:  39;

SISSETON         N/A     33  32  96 S8        29.75F
ABERDEEN       MOSUNNY   41  33  73 CALM      29.74F
6HR MIN TEMP:  28; 6HR MAX TEMP:  41;

MITCHELL       PTSUNNY   44  35  70 CALM      29.70F
PIERRE         MOSUNNY   49  34  56 NW20      29.74R
6HR MIN TEMP:  27; 6HR MAX TEMP:  49;

MOBRIDGE       CLOUDY    43  35  73 NW10      29.74S
RAPID CITY     CLOUDY    55  24  30 NW31G40   29.89R
6HR MIN TEMP:  35; 6HR MAX TEMP:  56;

$$

  *****  SOME WEATHER IN NEARBY STATES *****

CITY           SKY/WX    TMP DP  RH WIND       PRES   REMARKS
GLASGOW MT     CLOUDY    33  29  85 NW20      30.09R WCI  21
6HR MIN TEMP:  33; 6HR MAX TEMP:  38;

GREAT FALLS MT SUNNY     44  29  55 NW6       30.21R
6HR MIN TEMP:  31; 6HR MAX TEMP:  44;

CHEYENNE WY    MOSUNNY   50  26  39 NW22G39   30.08R
6HR MIN TEMP:  35; 6HR MAX TEMP:  50;

SCOTTSBLUFF NE   N/A    N/A N/A N/A MISG      29.98R
OMAHA NE       PTSUNNY   46  33  60 S10       29.78F
6HR MIN TEMP:  33; 6HR MAX TEMP:  46;

DES MOINES IA  CLOUDY    41  32  70 S15       29.88F
6HR MIN TEMP:  30; 6HR MAX TEMP:  41;

DAVENPORT IA   FAIR      32  22  66 SE23G30   30.05F WCI  19
6HR MIN TEMP:  26; 6HR MAX TEMP:  32;

CHICAGO IL     PTSUNNY   32  18  56 S12       30.18F WCI  23
6HR MIN TEMP:  19; 6HR MAX TEMP:  32;

EAU CLAIRE WI  CLOUDY    28  22  78 SE15      29.99F HAZE    WCI  16
6HR MIN TEMP:  24; 6HR MAX TEMP:  28;

LA CROSSE WI   CLOUDY    30  25  81 SE14      30.03F HAZE    WCI  19
6HR MIN TEMP:  27; 6HR MAX TEMP:  30;

$$

  *****  SOME NATIONAL WEATHER *****

CITY           SKY/WX    TMP DP  RH WIND       PRES   REMARKS
LA GUARDIA NY  FAIR      30  11  45 NW12      30.05F WCI  20
6HR MIN TEMP:  18; 6HR MAX TEMP:  30;




USA.gov is the U.S. government's official web portal to all federal, state and local government web resources and services.